Location: M?digepalle
(16.1753°N, 80.3496°E)
Time: 09:11:09
(UTC+00:00)

Cosmos 192 - Pass Details

Date: 29 October 2020
Orbit: 701 x 714 km, 74.0° (Epoch: 28 November)

Event Time Altitude Azimuth Distance (km) Brightness Sun altitude
Rises 13:52:22 0° 195° (SSW) 3,081 7.9 -25.0°
Reaches altitude 10° 13:54:41 10° 196° (SSW) 2,166 7.1 -25.6°
Enters shadow 13:59:33 81° 277° (W) 718 4.3 -26.8°
